Weather History for Norman, OK

Change the Weather History Date:

Sunday, January 19, 2014

  Actual Average Record
Temperature  
Mean Temperature 44 °F -  
Max Temperature 62 °F 46 °F 74 °F (1951)
Min Temperature 26 °F 27 °F 1 °F (1963)
Degree Days  
Heating Degree Days 21    
Moisture  
Dew Point 27 °F    
Average Humidity 55    
Maximum Humidity 86    
Minimum Humidity 30    
Precipitation  
Precipitation 0.00 in - - ()
Sea Level Pressure  
Sea Level Pressure 30.12 in    
Wind  
Wind Speed 8 mph (SW)    
Max Wind Speed 21 mph    
Max Gust Speed 25 mph    
Visibility 10 miles    
Events      
Averages and records for this station are not official NWS values.
T = Trace of Precipitation, MM = Missing Value Source: NWS Daily Summary

Daily Weather History Graph

Daily Weather History Graph

Search for Another Location

Airport:

Trip Planner

Search our weather history database for the weather conditions in past years. The results will help you decide how hot, cold, wet, or windy it might be!

Date:

Astronomy

Jan. 19, 2014 Rise Set
Actual Time 7:36 AM CST 5:45 PM CST
Civil Twilight 7:09 AM CST 6:12 PM CST
Nautical Twilight 6:38 AM CST 6:43 PM CST
Astronomical Twilight 6:07 AM CST 7:13 PM CST
Moon 9:14 PM CST (1/19) 9:16 AM CST (1/19)
Length of Visible Light 11h 03m
Length of Day
10h 08m
Waning Gibbous, 89% of the Moon is Illuminated
Jan 19
Waning Gibbous
Jan 23
Last Quarter
Jan 30
New
Feb 6
First Quarter
Feb 14
Full

Hourly Weather History & Observations

Time (CST) Temp. Windchill Dew Point Humidity Pressure Visibility Wind Dir Wind Speed Gust Speed Precip Events Conditions
12:15 AM 37.4 °F 33.8 °F 26.6 °F 65% 30.22 in 10.0 mi West 4.6 mph - N/A   Clear
12:35 AM 33.8 °F 28.6 °F 24.8 °F 70% 30.22 in 10.0 mi West 5.8 mph - N/A   Clear
12:55 AM 33.8 °F 28.6 °F 24.8 °F 70% 30.21 in 10.0 mi WNW 5.8 mph - N/A   Clear
1:15 AM 33.8 °F 27.7 °F 24.8 °F 70% 30.21 in 10.0 mi NW 6.9 mph - N/A   Clear
1:35 AM 32.0 °F 26.4 °F 24.8 °F 75% 30.21 in 10.0 mi NW 5.8 mph - N/A   Clear
1:55 AM 32.0 °F 27.5 °F 23.0 °F 69% 30.21 in 10.0 mi NNW 4.6 mph - N/A   Clear
2:15 AM 28.4 °F 23.3 °F 23.0 °F 80% 30.21 in 10.0 mi NNW 4.6 mph - N/A   Clear
2:35 AM 32.0 °F 28.7 °F 24.8 °F 75% 30.22 in 10.0 mi WNW 3.5 mph - N/A   Clear
2:55 AM 32.0 °F 28.7 °F 24.8 °F 75% 30.21 in 10.0 mi WNW 3.5 mph - N/A   Clear
3:15 AM 32.0 °F 27.5 °F 23.0 °F 69% 30.22 in 10.0 mi WNW 4.6 mph - N/A   Clear
3:35 AM 30.2 °F 26.7 °F 23.0 °F 75% 30.23 in 10.0 mi West 3.5 mph - N/A   Clear
3:55 AM 28.4 °F 24.6 °F 23.0 °F 80% 30.22 in 10.0 mi NW 3.5 mph - N/A   Clear
4:15 AM 28.4 °F 24.6 °F 23.0 °F 80% 30.21 in 10.0 mi NW 3.5 mph - N/A   Clear
4:35 AM 28.4 °F 24.6 °F 23.0 °F 80% 30.22 in 10.0 mi SSW 3.5 mph - N/A   Clear
4:55 AM 30.2 °F - 24.8 °F 80% 30.22 in 10.0 mi Calm Calm - N/A   Clear
5:15 AM 30.2 °F - 24.8 °F 80% 30.23 in 10.0 mi Calm Calm - N/A   Clear
5:35 AM 30.2 °F 25.4 °F 23.0 °F 75% 30.23 in 10.0 mi West 4.6 mph - N/A   Clear
5:55 AM 28.4 °F 21.2 °F 23.0 °F 80% 30.24 in 10.0 mi West 6.9 mph - N/A   Clear
6:15 AM 26.6 °F - 23.0 °F 86% 30.24 in 10.0 mi Calm Calm - N/A   Clear
6:35 AM 26.6 °F - 23.0 °F 86% 30.24 in 10.0 mi Calm Calm - N/A   Clear
6:55 AM 28.4 °F - 23.0 °F 80% 30.25 in 10.0 mi Calm Calm - N/A   Clear
7:15 AM 28.4 °F - 23.0 °F 80% 30.24 in 10.0 mi Calm Calm - N/A   Clear
7:35 AM 28.4 °F 24.6 °F 23.0 °F 80% 30.24 in 10.0 mi SW 3.5 mph - N/A   Clear
7:55 AM 28.4 °F 24.6 °F 23.0 °F 80% 30.24 in 10.0 mi SW 3.5 mph - N/A   Clear
8:15 AM 30.2 °F - 24.8 °F 80% 30.22 in 10.0 mi Calm Calm - N/A   Clear
8:35 AM 32.0 °F 26.4 °F 26.6 °F 80% 30.23 in 10.0 mi SW 5.8 mph - N/A   Clear
8:55 AM 33.8 °F 28.6 °F 26.6 °F 75% 30.22 in 10.0 mi SW 5.8 mph - N/A   Clear
9:15 AM 35.6 °F 29.9 °F 26.6 °F 70% 30.23 in 10.0 mi SW 6.9 mph - N/A   Clear
9:35 AM 37.4 °F 31.4 °F 28.4 °F 70% 30.23 in 10.0 mi SSW 8.1 mph - N/A   Clear
9:55 AM 42.8 °F 38.0 °F 28.4 °F 57% 30.23 in 10.0 mi SSW 8.1 mph - N/A   Clear
10:15 AM 44.6 °F 39.7 °F 28.4 °F 53% 30.23 in 10.0 mi South 9.2 mph - N/A   Clear
10:35 AM 48.2 °F - 30.2 °F 50% 30.23 in 10.0 mi SSW 10.4 mph - N/A   Clear
10:55 AM 51.8 °F - 30.2 °F 44% 30.21 in 10.0 mi SW 11.5 mph - N/A   Clear
11:15 AM 51.8 °F - 30.2 °F 44% 30.21 in 10.0 mi SW 15.0 mph - N/A   Clear
11:35 AM 53.6 °F - 30.2 °F 41% 30.20 in 10.0 mi SW 17.3 mph 20.7 mph N/A   Clear
11:55 AM 53.6 °F - 30.2 °F 41% 30.19 in 10.0 mi SW 16.1 mph - N/A   Clear
12:15 PM 55.4 °F - 30.2 °F 38% 30.17 in 10.0 mi SSW 15.0 mph - N/A   Clear
12:35 PM 59.0 °F - 30.2 °F 34% 30.14 in 10.0 mi SSW 17.3 mph - N/A   Clear
12:55 PM 59.0 °F - 30.2 °F 34% 30.12 in 10.0 mi WSW 12.7 mph 20.7 mph N/A   Clear
1:15 PM 60.8 °F - 30.2 °F 31% 30.11 in 10.0 mi SSW 16.1 mph 23.0 mph N/A   Clear
1:35 PM 60.8 °F - 30.2 °F 31% 30.09 in 10.0 mi SSW 18.4 mph 21.9 mph N/A   Clear
1:55 PM 60.8 °F - 30.2 °F 31% 30.09 in 10.0 mi SSW 17.3 mph 23.0 mph N/A   Clear
2:15 PM 60.8 °F - 30.2 °F 31% 30.07 in 10.0 mi SSW 18.4 mph 23.0 mph N/A   Clear
2:35 PM 62.6 °F - 30.2 °F 30% 30.05 in 10.0 mi SSW 16.1 mph 25.3 mph N/A   Clear
2:55 PM 62.6 °F - 30.2 °F 30% 30.04 in 10.0 mi SW 18.4 mph 25.3 mph N/A   Clear
3:15 PM 62.6 °F - 30.2 °F 30% 30.03 in 10.0 mi SW 17.3 mph 25.3 mph N/A   Clear
3:35 PM 62.6 °F - 30.2 °F 30% 30.03 in 10.0 mi SSW 13.8 mph 25.3 mph N/A   Clear
3:55 PM 62.6 °F - 30.2 °F 30% 30.03 in 10.0 mi SSW 16.1 mph 24.2 mph N/A   Clear
4:15 PM 62.6 °F - 30.2 °F 30% 30.02 in 10.0 mi SSW 20.7 mph - N/A   Clear
4:35 PM 62.6 °F - 30.2 °F 30% 30.01 in 10.0 mi SSW 18.4 mph 24.2 mph N/A   Clear
4:55 PM 60.8 °F - 30.2 °F 31% 30.00 in 10.0 mi SSW 17.3 mph 21.9 mph N/A   Clear
5:15 PM 60.8 °F - 30.2 °F 31% 30.00 in 10.0 mi South 13.8 mph - N/A   Clear
5:35 PM 59.0 °F - 30.2 °F 34% 30.00 in 10.0 mi SSW 10.4 mph - N/A   Clear
5:55 PM 55.4 °F - 30.2 °F 38% 30.00 in 10.0 mi South 8.1 mph - N/A   Clear
6:15 PM 51.8 °F - 28.4 °F 41% 30.00 in 10.0 mi South 6.9 mph - N/A   Clear
6:55 PM 50.0 °F - 28.4 °F 43% 30.00 in 10.0 mi South 9.2 mph - N/A   Clear
7:15 PM 50.0 °F - 28.4 °F 43% 30.00 in 10.0 mi South 9.2 mph - N/A   Clear
7:35 PM 51.8 °F - 30.2 °F 44% 30.00 in 10.0 mi South 12.7 mph - N/A   Clear
7:55 PM 51.8 °F - 30.2 °F 44% 30.00 in 10.0 mi South 11.5 mph - N/A   Clear
8:15 PM 50.0 °F - 28.4 °F 43% 29.99 in 10.0 mi South 11.5 mph - N/A   Clear
8:35 PM 48.2 °F - 28.4 °F 46% 29.99 in 10.0 mi South 11.5 mph - N/A   Clear
8:55 PM 48.2 °F - 28.4 °F 46% 29.99 in 10.0 mi South 10.4 mph - N/A   Clear
9:15 PM 48.2 °F - 28.4 °F 46% 29.98 in 10.0 mi South 11.5 mph - N/A   Clear
9:35 PM 50.0 °F - 28.4 °F 43% 29.98 in 10.0 mi South 12.7 mph - N/A   Clear
9:55 PM 50.0 °F - 28.4 °F 43% 29.98 in 10.0 mi South 12.7 mph - N/A   Clear
10:15 PM 50.0 °F - 28.4 °F 43% 29.97 in 10.0 mi South 12.7 mph - N/A   Clear
10:35 PM 50.0 °F - 28.4 °F 43% 29.97 in 10.0 mi South 13.8 mph - N/A   Clear
10:55 PM 50.0 °F - 28.4 °F 43% 29.97 in 10.0 mi South 12.7 mph - N/A   Clear
11:15 PM 48.2 °F - 28.4 °F 46% 29.97 in 10.0 mi South 13.8 mph - N/A   Clear
11:35 PM 46.4 °F 40.7 °F 28.4 °F 50% 29.96 in 10.0 mi South 12.7 mph - N/A   Clear
11:55 PM 46.4 °F 40.7 °F 28.4 °F 50% 29.95 in 10.0 mi South 12.7 mph - N/A   Clear